Location: Aufkirchen
(47.9603°N, 11.3653°E)
Time: 16:51:16
(UTC+01:00)

Transit 4A - Pass Details

Date: 27 November 2020
Orbit: 864 x 980 km, 66.8° (Epoch: 26 January)

Event Time Altitude Azimuth Distance (km) Brightness Sun altitude
Rises 19:19:01 0° 308° (NW) 3,670 11.7 -28.3°
Reaches altitude 10° 19:24:23 10° 271° (W) 2,689 11.2 -29.2°
Maximum altitude 19:25:22 10° 262° (W) 2,655 11.2 -29.4°
Drops below altitude 10° 19:26:20 10° 253° (WSW) 2,675 11.1 -29.6°
Sets 19:31:36 0° 215° (SW) 3,578 11.4 -30.4°
